| time (UTC) | temp C | wind direction | speed KPH | gust KPH | rain 1hr cm | rain 24hr cm | rain mn cm | humidity % | barometer mb |
| 20260503181606 | 22 | 18 | 3.2 | 11.3 | 0.00 | 0.00 | 0.00 | 61 | 1011.2 |
| 20260503180055 | 21 | 55 | 4.8 | 12.9 | 0.00 | 0.00 | 0.00 | 63 | 1011.3 |
| 20260503174606 | 21 | 26 | 1.6 | 12.9 | 0.00 | 0.00 | 0.00 | 65 | 1011.4 |
| 20260503173059 | 20 | 349 | 4.8 | 12.9 | 0.00 | 0.00 | 0.00 | 67 | 1011.5 |
| 20260503171552 | 20 | 32 | 4.8 | 14.5 | 0.00 | 0.00 | 0.00 | 69 | 1011.5 |
| 20260503120114 | 11 | 0 | 0.0 | 0.0 | 0.00 | 0.00 | 0.00 | 94 | 1011.6 |
| 20260503081554 | 11 | 0 | 0.0 | 0.0 | 0.00 | 0.00 | 0.00 | 92 | 1012.3 |
| 20260503071551 | 12 | 0 | 0.0 | 0.0 | 0.00 | 0.00 | 0.00 | 88 | 1012.6 |
| 20260503054549 | 14 | 0 | 0.0 | 0.0 | 0.00 | 0.00 | 0.00 | 83 | 1012.7 |
| 20260503053049 | 15 | 0 | 0.0 | 0.0 | 0.00 | 0.00 | 0.00 | 85 | 1012.5 |
| 20260503051549 | 15 | 0 | 0.0 | 0.0 | 0.00 | 0.00 | 0.00 | 83 | 1012.6 |
| 20260503050055 | 15 | 0 | 0.0 | 0.0 | 0.00 | 0.00 | 0.00 | 84 | 1012.4 |
| 20260503044604 | 15 | 0 | 0.0 | 0.0 | 0.00 | 0.00 | 0.00 | 82 | 1012.6 |
| 20260503043056 | 16 | 0 | 0.0 | 3.2 | 0.00 | 0.00 | 0.00 | 81 | 1012.4 |
| 20260503041610 | 16 | 0 | 0.0 | 0.0 | 0.00 | 0.00 | 0.00 | 79 | 1012.3 |
| 20260503040053 | 16 | 0 | 0.0 | 0.0 | 0.00 | 0.00 | 0.00 | 77 | 1012.2 |
| 20260503034554 | 17 | 0 | 1.6 | 6.4 | 0.00 | 0.00 | 0.00 | 76 | 1011.9 |
| 20260503033106 | 16 | 337 | 1.6 | 6.4 | 0.00 | 0.00 | 0.00 | 77 | 1011.6 |
| 20260503031554 | 17 | 9 | 1.6 | 3.2 | 0.00 | 0.00 | 0.00 | 75 | 1011.6 |
| 20260503030105 | 17 | 0 | 0.0 | 3.2 | 0.00 | 0.00 | 0.00 | 75 | 1011.7 |
| 20260503024559 | 17 | 36 | 3.2 | 6.4 | 0.00 | 0.00 | 0.00 | 73 | 1011.6 |
| 20260503023055 | 17 | 327 | 3.2 | 4.8 | 0.00 | 0.00 | 0.00 | 72 | 1011.4 |
| 20260503021552 | 17 | 293 | 3.2 | 6.4 | 0.00 | 0.00 | 0.00 | 72 | 1011.7 |
| 20260503020056 | 17 | 249 | 1.6 | 11.3 | 0.00 | 0.00 | 0.00 | 71 | 1012.1 |
| 20260503014555 | 18 | 168 | 0.0 | 16.1 | 0.00 | 0.00 | 0.00 | 70 | 1012.4 |
| 20260503013049 | 18 | 142 | 11.3 | 17.7 | 0.00 | 0.00 | 0.00 | 69 | 1013.0 |
| 20260503011603 | 19 | 140 | 3.2 | 6.4 | 0.00 | 0.00 | 0.00 | 65 | 1012.3 |
| 20260503010052 | 19 | 0 | 1.6 | 4.8 | 0.00 | 0.00 | 0.00 | 64 | 1012.2 |
| 20260503004551 | 19 | 0 | 3.2 | 8.0 | 0.00 | 0.00 | 0.00 | 64 | 1012.0 |
| 20260503003102 | 19 | 12 | 0.0 | 3.2 | 0.00 | 0.00 | 0.00 | 63 | 1012.1 |
| 20260503001600 | 19 | 296 | 0.0 | 6.4 | 0.00 | 0.00 | 0.00 | 64 | 1011.9 |
| 20260503000053 | 18 | 241 | 0.0 | 8.0 | 0.00 | 0.00 | 0.00 | 65 | 1011.9 |
| 20260502234556 | 18 | 352 | 4.8 | 8.0 | 0.00 | 0.00 | 0.00 | 66 | 1011.8 |
| 20260502233053 | 18 | 59 | 1.6 | 8.0 | 0.00 | 0.00 | 0.00 | 66 | 1012.2 |
| 20260502231558 | 18 | 45 | 3.2 | 8.0 | 0.00 | 0.00 | 0.00 | 66 | 1012.4 |
| 20260502230055 | 17 | 34 | 3.2 | 6.4 | 0.00 | 0.00 | 0.00 | 68 | 1012.7 |
| 20260502224551 | 17 | 9 | 4.8 | 8.0 | 0.00 | 0.00 | 0.00 | 68 | 1013.0 |
| 20260502223054 | 17 | 41 | 1.6 | 9.7 | 0.00 | 0.00 | 0.00 | 71 | 1013.1 |
| 20260502221555 | 17 | 52 | 6.4 | 12.9 | 0.00 | 0.00 | 0.00 | 70 | 1013.4 |
| 20260502220141 | 16 | 131 | 6.4 | 11.3 | 0.00 | 0.00 | 0.00 | 69 | 1013.5 |
| 20260502214555 | 16 | 58 | 6.4 | 8.0 | 0.00 | 0.00 | 0.00 | 70 | 1013.8 |
| 20260502213102 | 17 | 44 | 4.8 | 8.0 | 0.00 | 0.00 | 0.00 | 69 | 1013.7 |
| 20260502211557 | 16 | 21 | 4.8 | 12.9 | 0.00 | 0.00 | 0.00 | 69 | 1013.9 |
| 20260502210104 | 16 | 55 | 6.4 | 14.5 | 0.00 | 0.00 | 0.00 | 70 | 1014.2 |
| 20260502203121 | 16 | 360 | 8.0 | 16.1 | 0.00 | 0.00 | 0.00 | 70 | 1014.5 |
| 20260502201553 | 15 | 14 | 4.8 | 12.9 | 0.00 | 0.00 | 0.00 | 72 | 1014.5 |
| 20260502200055 | 15 | 89 | 1.6 | 11.3 | 0.00 | 0.00 | 0.00 | 72 | 1014.9 |
| 20260502194555 | 15 | 10 | 4.8 | 12.9 | 0.00 | 0.00 | 0.00 | 72 | 1015.1 |
| 20260502193053 | 15 | 340 | 9.7 | 16.1 | 0.00 | 0.00 | 0.00 | 71 | 1015.2 |
| 20260502191611 | 15 | 33 | 1.6 | 12.9 | 0.00 | 0.00 | 0.00 | 72 | 1015.4 |
| 20260502190103 | 14 | 360 | 6.4 | 11.3 | 0.00 | 0.00 | 0.00 | 73 | 1015.5 |
| 20260502184553 | 13 | 30 | 4.8 | 12.9 | 0.00 | 0.00 | 0.00 | 74 | 1015.9 |
| 20260502183102 | 13 | 113 | 3.2 | 11.3 | 0.00 | 0.00 | 0.00 | 75 | 1016.0 |